Wetterdaten: Dienstag, 30.10.2018
Datum Zeit Temp. A. Aussen2m Boden Feuchte A. Feuchte 2 Luftdruck Regen Wind Richtung Richtung Sonnenschein
30.10.2018 00:00 4,9 C 7,8 C 10,8 C 84 % 76 % 988,8 hPa 0,0 l/m 18,8 km/h (3 Bft) N-NO 25 0 min
30.10.2018 00:05 4,9 C 7,8 C 10,8 C 85 % 76 % 988,8 hPa 0,0 l/m 24,8 km/h (4 Bft) N-NO 20 0 min
30.10.2018 00:10 4,9 C 7,8 C 10,8 C 85 % 76 % 987,8 hPa 0,0 l/m 21,2 km/h (4 Bft) NO 40 0 min
30.10.2018 00:15 4,9 C 7,8 C 10,8 C 85 % 76 % 987,8 hPa 0,0 l/m 24,8 km/h (4 Bft) N 10 0 min
30.10.2018 00:20 4,9 C 7,8 C 10,8 C 85 % 76 % 987,8 hPa 0,0 l/m 24,8 km/h (4 Bft) NO 50 0 min
30.10.2018 00:25 4,9 C 7,8 C 10,8 C 85 % 76 % 988,8 hPa 0,0 l/m 21,2 km/h (4 Bft) N 0 0 min
30.10.2018 00:30 4,9 C 7,8 C 10,8 C 85 % 76 % 988,8 hPa 0,0 l/m 25,4 km/h (4 Bft) NO 35 0 min
30.10.2018 00:35 4,9 C 7,8 C 10,8 C 85 % 76 % 988,8 hPa 0,0 l/m 36,0 km/h (5 Bft) N-NO 25 0 min
30.10.2018 00:40 4,9 C 7,8 C 10,8 C 85 % 76 % 986,8 hPa 0,0 l/m 22,4 km/h (4 Bft) N 10 0 min
30.10.2018 00:45 4,8 C 7,8 C 10,8 C 85 % 76 % 986,8 hPa 0,0 l/m 23,0 km/h (4 Bft) NO 35 0 min
30.10.2018 00:50 4,8 C 7,8 C 10,8 C 86 % 76 % 986,8 hPa 0,0 l/m 21,8 km/h (4 Bft) N 5 0 min
30.10.2018 00:55 4,8 C 7,8 C 10,8 C 86 % 76 % 986,8 hPa 0,0 l/m 30,2 km/h (5 Bft) NO 50 0 min
30.10.2018 01:00 4,8 C 7,8 C 10,8 C 86 % 76 % 986,8 hPa 0,0 l/m 20,6 km/h (4 Bft) N-NO 25 0 min
30.10.2018 01:05 4,9 C 7,8 C 10,8 C 86 % 76 % 986,8 hPa 0,0 l/m 26,0 km/h (4 Bft) N-NO 15 0 min
30.10.2018 01:10 4,9 C 7,8 C 10,8 C 86 % 76 % 985,7 hPa 0,0 l/m 20,6 km/h (4 Bft) N-NO 20 0 min
30.10.2018 01:15 4,9 C 7,8 C 10,8 C 86 % 76 % 985,7 hPa 0,0 l/m 20,6 km/h (4 Bft) N-NO 20 0 min
30.10.2018 01:20 4,9 C 7,8 C 10,8 C 86 % 76 % 985,7 hPa 0,0 l/m 21,2 km/h (4 Bft) NO 50 0 min
30.10.2018 01:25 4,9 C 7,8 C 10,8 C 86 % 76 % 985,7 hPa 0,0 l/m 22,4 km/h (4 Bft) NO 40 0 min
30.10.2018 01:30 4,9 C 7,8 C 10,8 C 86 % 76 % 985,7 hPa 0,3 l/m 23,0 km/h (4 Bft) NO 50 0 min
30.10.2018 01:35 4,9 C 7,8 C 10,8 C 86 % 76 % 985,7 hPa 0,0 l/m 17,6 km/h (3 Bft) N-NW 340 0 min
30.10.2018 01:40 4,9 C 7,8 C 10,8 C 86 % 76 % 985,7 hPa 0,3 l/m 26,7 km/h (4 Bft) NO 45 0 min
30.10.2018 01:45 4,8 C 7,8 C 10,8 C 86 % 76 % 985,7 hPa 0,3 l/m 18,2 km/h (3 Bft) NO 35 0 min
30.10.2018 01:50 4,8 C 7,8 C 10,8 C 87 % 76 % 985,7 hPa 0,0 l/m 20,6 km/h (4 Bft) O-NO 75 0 min
30.10.2018 01:55 4,8 C 7,8 C 10,8 C 87 % 76 % 985,7 hPa 0,3 l/m 16,3 km/h (3 Bft) N 10 0 min
30.10.2018 02:00 4,8 C 7,8 C 10,8 C 87 % 76 % 985,7 hPa 0,0 l/m 28,6 km/h (5 Bft) N-NO 30 0 min
30.10.2018 02:05 4,8 C 7,8 C 10,8 C 87 % 76 % 985,7 hPa 0,3 l/m 23,0 km/h (4 Bft) NO 45 0 min
30.10.2018 02:10 4,7 C 7,8 C 10,8 C 87 % 76 % 984,7 hPa 0,6 l/m 20,6 km/h (4 Bft) N-NO 20 0 min
30.10.2018 02:15 4,7 C 7,8 C 10,8 C 87 % 76 % 984,7 hPa 0,0 l/m 19,4 km/h (3 Bft) N 355 0 min
30.10.2018 02:20 4,8 C 7,8 C 10,8 C 87 % 76 % 984,7 hPa 0,0 l/m 23,0 km/h (4 Bft) O-NO 60 0 min
30.10.2018 02:25 4,7 C 7,8 C 10,8 C 87 % 76 % 983,7 hPa 0,3 l/m 24,2 km/h (4 Bft) N-NO 25 0 min
30.10.2018 02:30 4,7 C 7,8 C 10,8 C 87 % 76 % 983,7 hPa 0,3 l/m 18,2 km/h (3 Bft) NO 55 0 min
30.10.2018 02:35 4,7 C 7,8 C 10,8 C 88 % 76 % 983,7 hPa 0,3 l/m 24,2 km/h (4 Bft) NO 45 0 min
30.10.2018 02:40 4,7 C 7,8 C 10,8 C 88 % 76 % 983,7 hPa 0,3 l/m 12,7 km/h (3 Bft) S-SO 160 0 min
30.10.2018 02:45 4,8 C 7,8 C 10,8 C 88 % 76 % 983,7 hPa 0,6 l/m 4,8 km/h (1 Bft) O 85 0 min
30.10.2018 02:50 4,8 C 7,8 C 10,8 C 88 % 76 % 983,7 hPa 0,6 l/m 7,3 km/h (2 Bft) O-SO 115 0 min
30.10.2018 02:55 4,8 C 7,8 C 10,8 C 88 % 76 % 983,7 hPa 0,6 l/m 10,9 km/h (2 Bft) O 80 0 min
30.10.2018 03:00 4,8 C 7,8 C 10,8 C 88 % 76 % 983,7 hPa 0,9 l/m 14,5 km/h (3 Bft) O-SO 115 0 min
30.10.2018 03:05 4,8 C 7,8 C 10,8 C 88 % 76 % 983,7 hPa 0,6 l/m 8,5 km/h (2 Bft) SO 140 0 min
30.10.2018 03:10 4,7 C 7,8 C 10,8 C 88 % 76 % 985,8 hPa 0,9 l/m 7,3 km/h (2 Bft) SO 125 0 min
30.10.2018 03:15 4,7 C 7,8 C 10,8 C 89 % 76 % 985,8 hPa 0,9 l/m 9,7 km/h (2 Bft) SO 140 0 min
30.10.2018 03:20 4,7 C 7,8 C 10,8 C 89 % 76 % 985,8 hPa 0,6 l/m 3,6 km/h (1 Bft) O-SO 120 0 min
30.10.2018 03:25 4,7 C 7,8 C 10,8 C 89 % 76 % 984,7 hPa 0,6 l/m 4,8 km/h (1 Bft) N-NO 25 0 min
30.10.2018 03:30 4,7 C 7,8 C 10,8 C 89 % 76 % 984,7 hPa 0,6 l/m 13,3 km/h (3 Bft) N-NW 335 0 min
30.10.2018 03:35 4,7 C 7,8 C 10,8 C 89 % 76 % 984,7 hPa 0,3 l/m 16,3 km/h (3 Bft) N-NO 20 0 min
30.10.2018 03:40 4,7 C 7,8 C 10,8 C 89 % 76 % 981,7 hPa 0,3 l/m 15,7 km/h (3 Bft) N-NO 20 0 min
30.10.2018 03:45 4,7 C 7,8 C 10,8 C 90 % 76 % 981,7 hPa 0,3 l/m 9,7 km/h (2 Bft) S-SO 150 0 min
30.10.2018 03:50 4,7 C 7,8 C 10,8 C 90 % 76 % 981,7 hPa 0,0 l/m 7,9 km/h (2 Bft) O-SO 110 0 min
30.10.2018 03:55 4,8 C 7,8 C 10,8 C 90 % 76 % 984,7 hPa 0,0 l/m 11,5 km/h (2 Bft) O-NO 65 0 min
30.10.2018 04:00 4,8 C 7,8 C 10,8 C 90 % 76 % 984,7 hPa 0,0 l/m 7,3 km/h (2 Bft) NO 50 0 min
30.10.2018 04:05 4,8 C 7,8 C 10,8 C 90 % 76 % 984,7 hPa 0,0 l/m 6,7 km/h (2 Bft) O-NO 65 0 min
30.10.2018 04:10 4,8 C 7,8 C 10,8 C 90 % 76 % 983,7 hPa 0,3 l/m 8,5 km/h (2 Bft) O-NO 70 0 min
30.10.2018 04:15 4,8 C 7,8 C 10,8 C 90 % 76 % 983,7 hPa 0,0 l/m 8,5 km/h (2 Bft) O 95 0 min
30.10.2018 04:20 4,8 C 7,8 C 10,8 C 90 % 76 % 983,7 hPa 0,0 l/m 6,1 km/h (2 Bft) O-SO 110 0 min
30.10.2018 04:25 4,8 C 7,8 C 10,8 C 90 % 76 % 982,7 hPa 0,0 l/m 5,4 km/h (2 Bft) O-SO 110 0 min
30.10.2018 04:30 4,9 C 7,8 C 10,8 C 90 % 76 % 982,7 hPa 0,0 l/m 9,1 km/h (2 Bft) O-NO 75 0 min
30.10.2018 04:35 4,9 C 7,8 C 10,8 C 90 % 76 % 982,7 hPa 0,0 l/m 12,7 km/h (3 Bft) O-NO 60 0 min
30.10.2018 04:40 4,9 C 7,8 C 10,8 C 90 % 76 % 983,7 hPa 0,0 l/m 6,1 km/h (2 Bft) O 90 0 min
30.10.2018 04:45 4,9 C 7,8 C 10,8 C 89 % 76 % 983,7 hPa 0,0 l/m 13,3 km/h (3 Bft) O-NO 75 0 min
30.10.2018 04:50 4,9 C 7,8 C 10,8 C 89 % 76 % 983,7 hPa 0,0 l/m 7,3 km/h (2 Bft) W 260 0 min
30.10.2018 04:55 4,9 C 7,8 C 10,8 C 89 % 76 % 982,7 hPa 0,0 l/m 6,1 km/h (2 Bft) O-NO 75 0 min
30.10.2018 05:00 5,0 C 7,8 C 10,8 C 89 % 76 % 982,7 hPa 0,0 l/m 10,9 km/h (2 Bft) O 90 0 min
30.10.2018 05:05 5,0 C 7,8 C 10,8 C 89 % 76 % 982,7 hPa 0,0 l/m 10,9 km/h (2 Bft) O 80 0 min
30.10.2018 05:10 5,0 C 7,8 C 10,8 C 89 % 76 % 982,7 hPa 0,0 l/m 14,5 km/h (3 Bft) NO 55 0 min
30.10.2018 05:15 5,0 C 7,8 C 10,8 C 89 % 76 % 982,7 hPa 0,0 l/m 6,1 km/h (2 Bft) NO 50 0 min
30.10.2018 05:20 5,0 C 7,8 C 10,8 C 89 % 76 % 982,7 hPa 0,0 l/m 6,1 km/h (2 Bft) NO 35 0 min
30.10.2018 05:25 5,1 C 7,8 C 10,8 C 89 % 76 % 983,7 hPa 0,0 l/m 10,3 km/h (2 Bft) O 90 0 min
30.10.2018 05:30 5,1 C 7,8 C 10,8 C 89 % 76 % 983,7 hPa 0,0 l/m 9,1 km/h (2 Bft) O-NO 70 0 min
30.10.2018 05:35 5,1 C 7,8 C 10,8 C 89 % 76 % 983,7 hPa 0,0 l/m 13,9 km/h (3 Bft) O 100 0 min
30.10.2018 05:40 5,1 C 7,8 C 10,8 C 89 % 76 % 983,7 hPa 0,0 l/m 16,3 km/h (3 Bft) O-NO 60 0 min
30.10.2018 05:45 5,1 C 7,8 C 10,8 C 89 % 76 % 983,7 hPa 0,0 l/m 18,8 km/h (3 Bft) O-NO 75 0 min
30.10.2018 05:50 5,1 C 7,8 C 10,8 C 89 % 76 % 983,7 hPa 0,0 l/m 11,5 km/h (2 Bft) NO 50 0 min
30.10.2018 05:55 5,1 C 7,8 C 10,8 C 89 % 76 % 982,7 hPa 0,0 l/m 6,7 km/h (2 Bft) S 170 0 min
30.10.2018 06:00 5,1 C 7,8 C 10,8 C 90 % 76 % 982,7 hPa 0,0 l/m 7,3 km/h (2 Bft) O-SO 115 0 min
30.10.2018 06:05 5,1 C 7,8 C 10,8 C 90 % 76 % 982,7 hPa 0,0 l/m 9,1 km/h (2 Bft) N-NO 15 0 min
30.10.2018 06:10 5,1 C 7,8 C 10,8 C 90 % 76 % 983,7 hPa 0,0 l/m 6,7 km/h (2 Bft) O 85 0 min
30.10.2018 06:15 5,1 C 7,8 C 10,8 C 90 % 76 % 983,7 hPa 0,0 l/m 9,7 km/h (2 Bft) O-SO 115 0 min
30.10.2018 06:20 5,1 C 7,8 C 10,8 C 90 % 76 % 983,7 hPa 0,0 l/m 8,5 km/h (2 Bft) O-SO 105 0 min
30.10.2018 06:25 5,1 C 7,8 C 10,8 C 90 % 76 % 983,7 hPa 0,0 l/m 7,9 km/h (2 Bft) S-SO 155 0 min
30.10.2018 06:30 5,1 C 7,8 C 10,8 C 90 % 76 % 983,7 hPa 0,0 l/m 4,8 km/h (1 Bft) S 185 0 min
30.10.2018 06:35 5,1 C 7,8 C 10,8 C 90 % 76 % 983,7 hPa 0,0 l/m 4,8 km/h (1 Bft) O 95 0 min
30.10.2018 06:40 5,1 C 7,8 C 10,8 C 90 % 76 % 983,7 hPa 0,0 l/m 2,4 km/h (1 Bft) S-SO 150 0 min
30.10.2018 06:45 5,1 C 7,8 C 10,8 C 90 % 76 % 983,7 hPa 0,0 l/m 4,2 km/h (1 Bft) S-SO 155 0 min
30.10.2018 06:50 5,1 C 7,8 C 10,8 C 90 % 76 % 983,7 hPa 0,0 l/m 1,8 km/h (1 Bft) SO 140 0 min
30.10.2018 06:55 5,1 C 7,8 C 10,8 C 90 % 76 % 983,7 hPa 0,0 l/m 1,2 km/h (1 Bft) S 170 0 min
30.10.2018 07:00 5,2 C 7,8 C 10,8 C 90 % 76 % 983,7 hPa 0,0 l/m 4,2 km/h (1 Bft) S-SO 155 0 min
30.10.2018 07:05 5,2 C 7,8 C 10,8 C 90 % 76 % 983,7 hPa 0,0 l/m 3,6 km/h (1 Bft) SO 140 0 min
30.10.2018 07:10 5,2 C 7,8 C 10,8 C 90 % 76 % 983,7 hPa 0,0 l/m 2,4 km/h (1 Bft) O-SO 110 0 min
30.10.2018 07:15 5,3 C 7,8 C 10,8 C 90 % 76 % 983,7 hPa 0,0 l/m 2,4 km/h (1 Bft) S-SO 160 0 min
30.10.2018 07:20 5,3 C 7,8 C 10,8 C 90 % 76 % 983,7 hPa 0,0 l/m 5,4 km/h (2 Bft) S-SO 150 0 min
30.10.2018 07:25 5,4 C 7,8 C 10,8 C 91 % 76 % 983,7 hPa 0,0 l/m 6,1 km/h (2 Bft) SO 140 0 min
30.10.2018 07:30 5,4 C 7,8 C 10,8 C 91 % 76 % 983,7 hPa 0,0 l/m 5,4 km/h (2 Bft) S-SO 155 0 min
30.10.2018 07:35 5,5 C 7,8 C 10,8 C 91 % 76 % 983,7 hPa 0,0 l/m 11,5 km/h (2 Bft) S 170 0 min
30.10.2018 07:40 5,6 C 7,8 C 10,8 C 91 % 76 % 983,7 hPa 0,0 l/m 12,1 km/h (2 Bft) S 180 0 min
30.10.2018 07:45 5,7 C 7,8 C 10,8 C 91 % 76 % 983,7 hPa 0,0 l/m 15,7 km/h (3 Bft) SO 140 0 min
30.10.2018 07:50 5,9 C 7,8 C 10,8 C 91 % 76 % 983,7 hPa 0,0 l/m 12,7 km/h (3 Bft) S-SO 150 0 min
30.10.2018 07:55 5,9 C 7,8 C 10,8 C 91 % 76 % 982,7 hPa 0,0 l/m 10,3 km/h (2 Bft) SO 125 0 min
30.10.2018 08:00 6,0 C 7,8 C 10,8 C 91 % 76 % 982,7 hPa 0,0 l/m 13,3 km/h (3 Bft) S 175 0 min
30.10.2018 08:05 6,1 C 7,8 C 10,8 C 91 % 76 % 982,7 hPa 0,0 l/m 13,9 km/h (3 Bft) S-SO 160 0 min
30.10.2018 08:10 6,2 C 7,8 C 10,8 C 91 % 76 % 983,7 hPa 0,0 l/m 10,9 km/h (2 Bft) O-SO 115 0 min
30.10.2018 08:15 6,3 C 7,8 C 10,8 C 91 % 76 % 983,7 hPa 0,0 l/m 21,8 km/h (4 Bft) SO 145 0 min
30.10.2018 08:20 6,3 C 7,8 C 10,8 C 91 % 76 % 983,7 hPa 0,0 l/m 14,5 km/h (3 Bft) S-SO 150 0 min
30.10.2018 08:25 6,4 C 7,8 C 10,8 C 91 % 76 % 984,7 hPa 0,0 l/m 21,8 km/h (4 Bft) S-SO 165 0 min
30.10.2018 08:30 6,4 C 7,8 C 10,8 C 91 % 76 % 984,7 hPa 0,0 l/m 22,4 km/h (4 Bft) SO 140 0 min
30.10.2018 08:35 6,5 C 7,8 C 10,8 C 91 % 76 % 984,7 hPa 0,0 l/m 18,8 km/h (3 Bft) S-SO 150 0 min
30.10.2018 08:40 6,5 C 7,8 C 10,8 C 91 % 76 % 984,7 hPa 0,0 l/m 18,8 km/h (3 Bft) SO 130 0 min
30.10.2018 08:45 6,6 C 7,8 C 10,8 C 90 % 76 % 984,7 hPa 0,0 l/m 21,8 km/h (4 Bft) S 185 0 min
30.10.2018 08:50 6,6 C 7,8 C 10,8 C 90 % 76 % 984,7 hPa 0,0 l/m 21,8 km/h (4 Bft) S-SW 195 0 min
30.10.2018 08:55 6,7 C 7,8 C 10,8 C 90 % 76 % 983,7 hPa 0,0 l/m 15,1 km/h (3 Bft) S-SO 155 0 min
30.10.2018 09:00 6,7 C 7,8 C 10,8 C 90 % 76 % 983,7 hPa 0,0 l/m 15,1 km/h (3 Bft) S-SO 150 0 min
30.10.2018 09:05 6,8 C 7,8 C 10,8 C 89 % 76 % 983,7 hPa 0,0 l/m 17,6 km/h (3 Bft) O-SO 110 0 min
30.10.2018 09:10 6,9 C 7,8 C 10,8 C 89 % 76 % 984,7 hPa 0,0 l/m 15,7 km/h (3 Bft) SO 135 0 min
30.10.2018 09:15 7,0 C 7,8 C 10,8 C 89 % 76 % 984,7 hPa 0,0 l/m 18,2 km/h (3 Bft) SO 130 0 min
30.10.2018 09:20 7,0 C 7,8 C 10,8 C 88 % 76 % 984,7 hPa 0,0 l/m 19,4 km/h (3 Bft) S 170 0 min
30.10.2018 09:25 7,1 C 7,8 C 10,8 C 88 % 76 % 984,7 hPa 0,0 l/m 23,6 km/h (4 Bft) SO 145 0 min
30.10.2018 09:30 7,2 C 7,8 C 10,8 C 87 % 76 % 984,7 hPa 0,0 l/m 21,2 km/h (4 Bft) S 185 0 min
30.10.2018 09:35 7,3 C 7,8 C 10,8 C 87 % 76 % 984,7 hPa 0,0 l/m 28,2 km/h (5 Bft) SO 145 0 min
30.10.2018 09:40 7,4 C 7,8 C 10,8 C 87 % 76 % 984,7 hPa 0,0 l/m 22,4 km/h (4 Bft) S-SO 155 0 min
30.10.2018 09:45 7,4 C 7,8 C 10,8 C 87 % 76 % 984,7 hPa 0,0 l/m 21,2 km/h (4 Bft) SO 140 0 min
30.10.2018 09:50 7,4 C 7,8 C 10,8 C 86 % 76 % 984,7 hPa 0,0 l/m 25,4 km/h (4 Bft) S-SO 155 0 min
30.10.2018 09:55 7,4 C 7,8 C 10,8 C 86 % 76 % 984,7 hPa 0,0 l/m 22,4 km/h (4 Bft) S 170 0 min
30.10.2018 10:00 7,4 C 7,8 C 10,8 C 87 % 76 % 984,7 hPa 0,0 l/m 23,0 km/h (4 Bft) S 185 0 min
30.10.2018 10:05 7,5 C 7,8 C 10,8 C 87 % 76 % 984,7 hPa 0,0 l/m 20,6 km/h (4 Bft) SW 230 0 min
30.10.2018 10:10 7,5 C 7,8 C 10,8 C 87 % 76 % 985,7 hPa 0,3 l/m 18,2 km/h (3 Bft) SO 125 0 min
30.10.2018 10:15 7,4 C 7,8 C 10,8 C 87 % 76 % 985,7 hPa 0,0 l/m 26,3 km/h (4 Bft) S-SO 150 0 min
30.10.2018 10:20 7,5 C 7,8 C 10,8 C 87 % 76 % 985,7 hPa 0,0 l/m 24,2 km/h (4 Bft) S 180 0 min
30.10.2018 10:25 7,5 C 7,8 C 10,8 C 87 % 76 % 985,7 hPa 0,0 l/m 24,2 km/h (4 Bft) S 180 0 min
30.10.2018 10:30 7,6 C 7,8 C 10,8 C 87 % 76 % 985,7 hPa 0,3 l/m 21,8 km/h (4 Bft) S-SO 150 0 min
30.10.2018 10:35 7,6 C 7,8 C 10,8 C 86 % 76 % 985,7 hPa 0,0 l/m 23,6 km/h (4 Bft) SO 140 0 min
30.10.2018 10:40 7,7 C 7,8 C 10,8 C 86 % 76 % 985,7 hPa 0,0 l/m 19,4 km/h (3 Bft) S-SO 165 0 min
30.10.2018 10:45 7,7 C 7,8 C 10,8 C 86 % 76 % 985,7 hPa 0,0 l/m 24,8 km/h (4 Bft) S 170 0 min
30.10.2018 10:50 7,8 C 7,8 C 10,8 C 85 % 76 % 985,7 hPa 0,0 l/m 25,4 km/h (4 Bft) S-SO 155 0 min
30.10.2018 10:55 7,9 C 7,8 C 10,8 C 84 % 76 % 984,7 hPa 0,0 l/m 26,7 km/h (4 Bft) S 170 0 min
30.10.2018 11:00 8,1 C 7,8 C 10,8 C 83 % 76 % 984,7 hPa 0,0 l/m 23,0 km/h (4 Bft) S 180 0 min
30.10.2018 11:05 8,2 C 7,8 C 10,8 C 82 % 76 % 984,7 hPa 0,0 l/m 28,6 km/h (5 Bft) S 185 0 min
30.10.2018 11:10 8,3 C 7,8 C 10,8 C 81 % 76 % 986,7 hPa 0,0 l/m 27,8 km/h (5 Bft) SO 145 0 min
30.10.2018 11:15 8,3 C 7,8 C 10,8 C 80 % 76 % 986,7 hPa 0,0 l/m 31,7 km/h (5 Bft) SO 145 0 min
30.10.2018 11:20 8,4 C 7,8 C 10,8 C 79 % 76 % 986,7 hPa 0,0 l/m 27,4 km/h (5 Bft) S 170 0 min
30.10.2018 11:25 8,5 C 7,8 C 10,8 C 79 % 76 % 986,7 hPa 0,0 l/m 26,3 km/h (4 Bft) S 185 0 min
30.10.2018 11:30 8,5 C 7,8 C 10,8 C 78 % 76 % 986,7 hPa 0,0 l/m 25,4 km/h (4 Bft) S-SO 165 0 min
30.10.2018 11:35 8,5 C 7,8 C 10,8 C 78 % 76 % 986,7 hPa 0,0 l/m 26,3 km/h (4 Bft) SO 140 0 min
30.10.2018 11:40 8,3 C 7,8 C 10,8 C 77 % 76 % 985,7 hPa 0,0 l/m 27,8 km/h (5 Bft) S 175 0 min
30.10.2018 11:45 8,2 C 7,8 C 10,8 C 76 % 76 % 985,7 hPa 0,0 l/m 32,9 km/h (5 Bft) S-SO 160 0 min
30.10.2018 11:50 8,2 C 7,8 C 10,8 C 75 % 76 % 985,7 hPa 0,0 l/m 26,3 km/h (4 Bft) S 170 0 min
30.10.2018 11:55 8,1 C 7,8 C 10,8 C 76 % 76 % 986,7 hPa 0,0 l/m 31,7 km/h (5 Bft) S 170 0 min
30.10.2018 12:00 8,0 C 7,8 C 10,8 C 76 % 76 % 986,7 hPa 0,0 l/m 27,1 km/h (5 Bft) S-SO 155 0 min
30.10.2018 12:05 7,8 C 7,8 C 10,8 C 75 % 76 % 986,7 hPa 0,0 l/m 31,7 km/h (5 Bft) SO 145 0 min
30.10.2018 12:10 7,7 C 7,8 C 10,8 C 75 % 76 % 986,7 hPa 0,0 l/m 32,1 km/h (5 Bft) SO 145 0 min
30.10.2018 12:15 7,6 C 7,8 C 10,8 C 76 % 76 % 986,7 hPa 0,0 l/m 30,9 km/h (5 Bft) S 170 0 min
30.10.2018 12:20 7,5 C 7,8 C 10,8 C 76 % 76 % 986,7 hPa 0,0 l/m 26,7 km/h (4 Bft) SO 145 0 min
30.10.2018 12:25 7,3 C 7,8 C 10,8 C 76 % 76 % 986,7 hPa 0,0 l/m 32,5 km/h (5 Bft) S-SO 155 0 min
30.10.2018 12:30 7,3 C 7,8 C 10,8 C 75 % 76 % 986,7 hPa 0,0 l/m 23,0 km/h (4 Bft) SO 130 0 min
30.10.2018 12:35 7,3 C 7,8 C 10,8 C 75 % 76 % 986,7 hPa 0,0 l/m 30,2 km/h (5 Bft) S 190 0 min
30.10.2018 12:40 7,4 C 7,8 C 10,8 C 74 % 76 % 986,7 hPa 0,0 l/m 26,7 km/h (4 Bft) S 170 0 min
30.10.2018 12:45 7,3 C 7,8 C 10,8 C 74 % 76 % 986,7 hPa 0,0 l/m 31,7 km/h (5 Bft) SO 145 0 min
30.10.2018 12:50 7,2 C 7,8 C 10,8 C 73 % 76 % 986,7 hPa 0,0 l/m 31,3 km/h (5 Bft) SO 125 0 min
30.10.2018 12:55 7,1 C 7,8 C 10,8 C 73 % 76 % 987,7 hPa 0,0 l/m 33,7 km/h (5 Bft) SO 125 0 min
30.10.2018 13:00 7,1 C 7,8 C 10,8 C 73 % 76 % 987,7 hPa 0,0 l/m 29,4 km/h (5 Bft) S-SO 160 0 min
30.10.2018 13:05 7,0 C 7,8 C 10,8 C 72 % 76 % 987,7 hPa 0,0 l/m 33,3 km/h (5 Bft) SO 125 0 min
30.10.2018 13:10 7,0 C 7,8 C 10,8 C 72 % 76 % 986,7 hPa 0,0 l/m 32,5 km/h (5 Bft) SO 140 0 min
30.10.2018 13:15 6,9 C 7,8 C 10,8 C 72 % 76 % 986,7 hPa 0,0 l/m 26,3 km/h (4 Bft) S-SW 205 0 min
30.10.2018 13:20 6,9 C 7,8 C 10,8 C 70 % 76 % 986,7 hPa 0,0 l/m 34,0 km/h (5 Bft) SW 225 0 min
30.10.2018 13:25 6,9 C 7,8 C 10,8 C 70 % 76 % 986,7 hPa 0,0 l/m 30,2 km/h (5 Bft) S-SO 155 0 min
30.10.2018 13:30 6,8 C 7,8 C 10,8 C 71 % 76 % 986,7 hPa 0,0 l/m 36,8 km/h (5 Bft) S-SW 200 0 min
30.10.2018 13:35 6,7 C 7,8 C 10,8 C 70 % 76 % 986,7 hPa 0,0 l/m 33,3 km/h (5 Bft) SO 135 0 min
30.10.2018 13:40 6,8 C 7,8 C 10,8 C 70 % 76 % 987,7 hPa 0,0 l/m 35,6 km/h (5 Bft) S-SO 150 0 min
30.10.2018 13:45 6,8 C 7,8 C 10,8 C 70 % 76 % 987,7 hPa 0,0 l/m 35,6 km/h (5 Bft) S-SO 150 0 min
30.10.2018 13:50 6,8 C 7,8 C 10,8 C 69 % 76 % 987,7 hPa 0,0 l/m 32,1 km/h (5 Bft) O 95 0 min
30.10.2018 13:55 6,7 C 7,8 C 10,8 C 70 % 76 % 987,7 hPa 0,0 l/m 24,8 km/h (4 Bft) S-SO 155 0 min
30.10.2018 14:00 6,6 C 7,8 C 10,8 C 71 % 76 % 987,7 hPa 0,0 l/m 26,7 km/h (4 Bft) SO 130 0 min
30.10.2018 14:05 6,6 C 7,8 C 10,8 C 71 % 76 % 987,7 hPa 0,0 l/m 27,1 km/h (5 Bft) S-SO 165 0 min
30.10.2018 14:10 6,5 C 7,8 C 10,8 C 69 % 76 % 987,7 hPa 0,0 l/m 36,4 km/h (5 Bft) S 175 0 min
30.10.2018 14:15 6,4 C 7,8 C 10,8 C 70 % 76 % 987,7 hPa 0,0 l/m 36,0 km/h (5 Bft) S 175 0 min
30.10.2018 14:20 6,4 C 7,8 C 10,8 C 69 % 76 % 987,7 hPa 0,0 l/m 28,2 km/h (5 Bft) NW 310 0 min
30.10.2018 14:25 6,4 C 7,8 C 10,8 C 68 % 76 % 986,7 hPa 0,0 l/m 34,4 km/h (5 Bft) S-SO 160 0 min
30.10.2018 14:30 6,3 C 7,8 C 10,8 C 67 % 76 % 986,7 hPa 0,0 l/m 33,7 km/h (5 Bft) S-SO 160 0 min
30.10.2018 14:35 6,3 C 7,8 C 10,8 C 68 % 76 % 986,7 hPa 0,0 l/m 36,4 km/h (5 Bft) S 185 0 min
30.10.2018 14:40 6,2 C 7,8 C 10,8 C 69 % 76 % 986,7 hPa 0,0 l/m 36,8 km/h (5 Bft) SO 130 0 min
30.10.2018 14:45 6,1 C 7,8 C 10,8 C 69 % 76 % 986,7 hPa 0,0 l/m 34,8 km/h (5 Bft) SO 140 0 min
30.10.2018 14:50 6,1 C 7,8 C 10,8 C 69 % 76 % 986,7 hPa 0,0 l/m 30,2 km/h (5 Bft) SO 145 0 min
30.10.2018 14:55 6,0 C 7,8 C 10,8 C 70 % 76 % 987,7 hPa 0,0 l/m 24,8 km/h (4 Bft) S 180 0 min
30.10.2018 15:00 5,9 C 7,8 C 10,8 C 69 % 76 % 987,7 hPa 0,0 l/m 32,5 km/h (5 Bft) SO 135 0 min
30.10.2018 15:05 5,6 C 7,8 C 10,8 C 70 % 76 % 987,7 hPa 0,0 l/m 39,1 km/h (6 Bft) S-SO 155 0 min
30.10.2018 15:10 5,4 C 7,8 C 10,8 C 71 % 76 % 987,7 hPa 0,0 l/m 36,0 km/h (5 Bft) S 175 0 min
30.10.2018 15:15 5,2 C 7,8 C 10,8 C 73 % 76 % 987,8 hPa 0,0 l/m 29,4 km/h (5 Bft) S 185 0 min
30.10.2018 15:20 5,1 C 7,8 C 10,8 C 74 % 76 % 987,8 hPa 0,0 l/m 34,8 km/h (5 Bft) SO 145 0 min
30.10.2018 15:25 4,9 C 7,8 C 10,8 C 76 % 76 % 986,8 hPa 0,0 l/m 29,0 km/h (5 Bft) S 170 0 min
30.10.2018 15:30 4,8 C 7,8 C 10,8 C 76 % 76 % 986,8 hPa 0,0 l/m 29,0 km/h (5 Bft) S-SO 150 0 min
30.10.2018 15:35 4,9 C 7,8 C 10,8 C 77 % 76 % 986,8 hPa 0,0 l/m 28,2 km/h (5 Bft) S-SO 160 0 min
30.10.2018 15:40 4,9 C 7,8 C 10,8 C 76 % 76 % 986,8 hPa 0,0 l/m 32,9 km/h (5 Bft) SO 135 0 min
30.10.2018 15:45 4,9 C 7,8 C 10,8 C 76 % 76 % 986,8 hPa 0,0 l/m 28,2 km/h (5 Bft) S 180 0 min
30.10.2018 15:50 4,8 C 7,8 C 10,8 C 77 % 76 % 986,8 hPa 0,0 l/m 35,2 km/h (5 Bft) SO 145 0 min
30.10.2018 15:55 4,6 C 7,8 C 10,8 C 79 % 76 % 986,8 hPa 0,0 l/m 24,2 km/h (4 Bft) SO 140 0 min
30.10.2018 16:00 4,4 C 7,8 C 10,8 C 80 % 76 % 986,8 hPa 0,0 l/m 30,9 km/h (5 Bft) SW 230 0 min
30.10.2018 16:05 4,4 C 7,8 C 10,8 C 81 % 76 % 986,8 hPa 0,0 l/m 22,4 km/h (4 Bft) S-SO 160 0 min
30.10.2018 16:10 4,4 C 7,8 C 10,8 C 81 % 76 % 987,8 hPa 0,3 l/m 27,4 km/h (5 Bft) S-SO 150 0 min
30.10.2018 16:15 4,3 C 7,8 C 10,8 C 81 % 76 % 987,8 hPa 0,0 l/m 29,8 km/h (5 Bft) SW 220 0 min
30.10.2018 16:20 3,9 C 7,8 C 10,8 C 82 % 76 % 987,8 hPa 0,3 l/m 31,3 km/h (5 Bft) O-SO 120 0 min
30.10.2018 16:25 3,8 C 7,8 C 10,8 C 83 % 76 % 987,8 hPa 0,0 l/m 31,3 km/h (5 Bft) SO 145 0 min
30.10.2018 16:30 3,6 C 7,8 C 10,8 C 84 % 76 % 987,8 hPa 0,6 l/m 26,3 km/h (4 Bft) SO 145 0 min
30.10.2018 16:35 3,5 C 7,8 C 10,8 C 84 % 76 % 987,8 hPa 0,3 l/m 26,7 km/h (4 Bft) S-SO 165 0 min
30.10.2018 16:40 3,6 C 7,8 C 10,8 C 85 % 76 % 986,8 hPa 0,3 l/m 25,4 km/h (4 Bft) S-SO 155 0 min
30.10.2018 16:45 3,6 C 7,8 C 10,8 C 85 % 76 % 986,8 hPa 0,0 l/m 18,2 km/h (3 Bft) SO 145 0 min
30.10.2018 16:50 3,7 C 7,8 C 10,8 C 86 % 76 % 986,8 hPa 0,3 l/m 26,0 km/h (4 Bft) S 175 0 min
30.10.2018 16:55 3,7 C 7,8 C 10,8 C 86 % 76 % 988,8 hPa 0,3 l/m 24,2 km/h (4 Bft) S 180 0 min
30.10.2018 17:00 3,7 C 7,8 C 10,8 C 87 % 76 % 988,8 hPa 0,3 l/m 24,8 km/h (4 Bft) SO 140 0 min
30.10.2018 17:05 3,7 C 7,8 C 10,8 C 87 % 76 % 988,8 hPa 0,0 l/m 21,8 km/h (4 Bft) SO 140 0 min
30.10.2018 17:10 3,8 C 7,8 C 10,8 C 87 % 76 % 988,8 hPa 0,3 l/m 20,0 km/h (4 Bft) S-SO 155 0 min
30.10.2018 17:15 3,9 C 7,8 C 10,8 C 88 % 76 % 988,8 hPa 0,6 l/m 18,8 km/h (3 Bft) S-SO 150 0 min
30.10.2018 17:20 4,0 C 7,8 C 10,8 C 88 % 76 % 988,8 hPa 0,0 l/m 24,8 km/h (4 Bft) S 180 0 min
30.10.2018 17:25 4,1 C 7,8 C 10,8 C 88 % 76 % 987,8 hPa 0,6 l/m 24,2 km/h (4 Bft) S-SO 160 0 min
30.10.2018 17:30 4,2 C 7,8 C 10,8 C 89 % 76 % 987,8 hPa 0,0 l/m 23,6 km/h (4 Bft) S-SO 165 0 min
30.10.2018 17:35 4,4 C 7,8 C 10,8 C 89 % 76 % 987,8 hPa 0,3 l/m 18,2 km/h (3 Bft) S 170 0 min
30.10.2018 17:40 4,7 C 7,8 C 10,8 C 89 % 76 % 987,8 hPa 0,3 l/m 23,0 km/h (4 Bft) SO 145 0 min
30.10.2018 17:45 5,0 C 7,8 C 10,8 C 89 % 76 % 987,8 hPa 0,3 l/m 23,0 km/h (4 Bft) S 180 0 min
30.10.2018 17:50 5,2 C 7,8 C 10,8 C 90 % 76 % 987,8 hPa 0,0 l/m 20,6 km/h (4 Bft) W-SW 245 0 min
30.10.2018 17:55 5,7 C 7,8 C 10,8 C 90 % 76 % 989,8 hPa 0,3 l/m 20,6 km/h (4 Bft) S 190 0 min
30.10.2018 18:00 6,3 C 7,8 C 10,8 C 90 % 76 % 989,7 hPa 0,3 l/m 23,0 km/h (4 Bft) SW 225 0 min
30.10.2018 18:05 7,4 C 7,8 C 10,8 C 90 % 76 % 989,7 hPa 0,0 l/m 34,8 km/h (5 Bft) S-SW 195 0 min
30.10.2018 18:10 7,7 C 7,8 C 10,8 C 90 % 76 % 989,7 hPa 0,3 l/m 31,7 km/h (5 Bft) S-SW 200 0 min
30.10.2018 18:15 8,1 C 7,8 C 10,8 C 88 % 76 % 989,7 hPa 0,0 l/m 38,3 km/h (6 Bft) SW 225 0 min
30.10.2018 18:20 8,2 C 7,8 C 10,8 C 88 % 76 % 989,7 hPa 0,0 l/m 45,3 km/h (6 Bft) SW 235 0 min
30.10.2018 18:25 8,2 C 7,8 C 10,8 C 86 % 76 % 989,7 hPa 0,3 l/m 37,5 km/h (5 Bft) SW 235 0 min
30.10.2018 18:30 8,3 C 7,8 C 10,8 C 86 % 76 % 989,7 hPa 0,0 l/m 38,3 km/h (6 Bft) S-SW 195 0 min
30.10.2018 18:35 8,3 C 7,8 C 10,8 C 86 % 76 % 989,7 hPa 0,0 l/m 39,9 km/h (6 Bft) S-SW 210 0 min
30.10.2018 18:40 8,3 C 7,8 C 10,8 C 85 % 76 % 989,7 hPa 0,0 l/m 38,7 km/h (6 Bft) NW 305 0 min
30.10.2018 18:45 8,3 C 7,8 C 10,8 C 85 % 76 % 989,7 hPa 0,0 l/m 34,8 km/h (5 Bft) S-SW 205 0 min
30.10.2018 18:50 8,4 C 7,8 C 10,8 C 85 % 76 % 989,7 hPa 0,3 l/m 46,8 km/h (6 Bft) W-SW 245 0 min
30.10.2018 18:55 8,3 C 7,8 C 10,8 C 85 % 76 % 990,7 hPa 0,0 l/m 34,8 km/h (5 Bft) SW 220 0 min
30.10.2018 19:00 8,3 C 7,8 C 10,8 C 85 % 76 % 990,7 hPa 0,0 l/m 36,4 km/h (5 Bft) W-SW 240 0 min
30.10.2018 19:05 8,4 C 7,8 C 10,8 C 85 % 76 % 990,7 hPa 0,0 l/m 36,4 km/h (5 Bft) S-SW 205 0 min
30.10.2018 19:10 8,4 C 7,8 C 10,8 C 85 % 76 % 991,7 hPa 0,0 l/m 32,9 km/h (5 Bft) W 265 0 min
30.10.2018 19:15 8,5 C 7,8 C 10,8 C 85 % 76 % 991,7 hPa 0,0 l/m 38,7 km/h (6 Bft) S-SW 195 0 min
30.10.2018 19:20 8,5 C 7,8 C 10,8 C 85 % 76 % 991,7 hPa 0,3 l/m 36,4 km/h (5 Bft) W-SW 245 0 min
30.10.2018 19:25 8,5 C 7,8 C 10,8 C 85 % 76 % 992,7 hPa 0,0 l/m 41,8 km/h (6 Bft) S-SW 210 0 min
30.10.2018 19:30 8,6 C 7,8 C 10,8 C 85 % 76 % 992,7 hPa 0,0 l/m 36,4 km/h (5 Bft) SW 230 0 min
30.10.2018 19:35 8,6 C 7,8 C 10,8 C 85 % 76 % 992,7 hPa 0,0 l/m 39,9 km/h (6 Bft) SW 230 0 min
30.10.2018 19:40 8,7 C 7,8 C 10,8 C 84 % 76 % 992,7 hPa 0,0 l/m 40,6 km/h (6 Bft) S-SW 200 0 min
30.10.2018 19:45 8,7 C 7,8 C 10,8 C 84 % 76 % 992,7 hPa 0,0 l/m 39,5 km/h (6 Bft) W-SW 240 0 min
30.10.2018 19:50 8,7 C 7,8 C 10,8 C 84 % 76 % 992,7 hPa 0,0 l/m 38,3 km/h (6 Bft) S-SW 205 0 min
30.10.2018 19:55 8,7 C 7,8 C 10,8 C 84 % 76 % 993,7 hPa 0,3 l/m 38,3 km/h (6 Bft) S-SW 205 0 min
30.10.2018 20:00 8,7 C 7,8 C 10,8 C 84 % 76 % 993,7 hPa 0,0 l/m 36,4 km/h (5 Bft) W-SW 240 0 min
30.10.2018 20:05 8,6 C 7,8 C 10,8 C 85 % 76 % 993,7 hPa 0,3 l/m 38,3 km/h (6 Bft) SW 215 0 min
30.10.2018 20:10 8,6 C 7,8 C 10,8 C 85 % 76 % 993,7 hPa 0,0 l/m 34,8 km/h (5 Bft) SW 230 0 min
30.10.2018 20:15 8,6 C 7,8 C 10,8 C 85 % 76 % 993,7 hPa 0,3 l/m 39,9 km/h (6 Bft) SW 220 0 min
30.10.2018 20:20 8,6 C 7,8 C 10,8 C 85 % 76 % 993,7 hPa 0,0 l/m 39,9 km/h (6 Bft) W 265 0 min
30.10.2018 20:25 8,6 C 7,8 C 10,8 C 85 % 76 % 994,7 hPa 0,0 l/m 37,5 km/h (5 Bft) S-SW 200 0 min
30.10.2018 20:30 8,6 C 7,8 C 10,8 C 85 % 76 % 994,7 hPa 0,3 l/m 33,3 km/h (5 Bft) SW 225 0 min
30.10.2018 20:35 8,7 C 7,8 C 10,8 C 84 % 76 % 994,7 hPa 0,0 l/m 39,1 km/h (6 Bft) S-SW 195 0 min
30.10.2018 20:40 8,7 C 7,8 C 10,8 C 84 % 76 % 995,7 hPa 0,0 l/m 34,0 km/h (5 Bft) S-SW 205 0 min
30.10.2018 20:45 8,8 C 7,8 C 10,8 C 84 % 76 % 995,7 hPa 0,0 l/m 40,2 km/h (6 Bft) W-SW 250 0 min
30.10.2018 20:50 8,7 C 7,8 C 10,8 C 84 % 76 % 995,7 hPa 0,3 l/m 27,8 km/h (5 Bft) S 180 0 min
30.10.2018 20:55 8,8 C 7,8 C 10,8 C 84 % 76 % 996,7 hPa 0,0 l/m 38,7 km/h (6 Bft) W-SW 255 0 min
30.10.2018 21:00 9,0 C 7,8 C 10,8 C 83 % 76 % 996,7 hPa 0,0 l/m 37,9 km/h (6 Bft) SW 220 0 min
30.10.2018 21:05 9,1 C 7,8 C 10,8 C 82 % 76 % 996,7 hPa 0,0 l/m 39,5 km/h (6 Bft) SW 225 0 min
30.10.2018 21:10 9,1 C 7,8 C 10,8 C 82 % 76 % 996,7 hPa 0,0 l/m 33,3 km/h (5 Bft) W-SW 250 0 min
30.10.2018 21:15 9,1 C 7,8 C 10,8 C 82 % 76 % 996,7 hPa 0,0 l/m 31,7 km/h (5 Bft) SW 215 0 min
30.10.2018 21:20 9,1 C 7,8 C 10,8 C 82 % 76 % 996,7 hPa 0,0 l/m 32,1 km/h (5 Bft) W-SW 240 0 min
30.10.2018 21:25 9,1 C 7,8 C 10,8 C 81 % 76 % 996,7 hPa 0,0 l/m 40,2 km/h (6 Bft) S 190 0 min
30.10.2018 21:30 9,2 C 7,8 C 10,8 C 81 % 76 % 996,7 hPa 0,0 l/m 40,6 km/h (6 Bft) W-SW 245 0 min
30.10.2018 21:35 9,2 C 7,8 C 10,8 C 81 % 76 % 996,7 hPa 0,0 l/m 37,9 km/h (6 Bft) SW 225 0 min
30.10.2018 21:40 9,2 C 7,8 C 10,8 C 80 % 76 % 998,7 hPa 0,0 l/m 31,7 km/h (5 Bft) S-SW 200 0 min
30.10.2018 21:45 9,2 C 7,8 C 10,8 C 80 % 76 % 998,7 hPa 0,0 l/m 34,8 km/h (5 Bft) W-SW 245 0 min
30.10.2018 21:50 9,2 C 7,8 C 10,8 C 81 % 76 % 998,7 hPa 0,0 l/m 39,5 km/h (6 Bft) SW 235 0 min
30.10.2018 21:55 9,2 C 7,8 C 10,8 C 81 % 76 % 998,7 hPa 0,0 l/m 30,2 km/h (5 Bft) SW 230 0 min
30.10.2018 22:00 9,2 C 7,8 C 10,8 C 80 % 76 % 998,7 hPa 0,0 l/m 37,9 km/h (6 Bft) W-SW 240 0 min
30.10.2018 22:05 9,2 C 7,8 C 10,8 C 80 % 76 % 998,7 hPa 0,0 l/m 37,1 km/h (5 Bft) SW 220 0 min
30.10.2018 22:10 9,1 C 7,8 C 10,8 C 80 % 76 % 998,7 hPa 0,0 l/m 36,4 km/h (5 Bft) W 275 0 min
30.10.2018 22:15 9,1 C 7,8 C 10,8 C 81 % 76 % 998,7 hPa 0,0 l/m 36,0 km/h (5 Bft) W-SW 240 0 min
30.10.2018 22:20 8,9 C 7,8 C 10,8 C 82 % 76 % 998,7 hPa 0,0 l/m 34,4 km/h (5 Bft) S-SW 205 0 min
30.10.2018 22:25 8,9 C 7,8 C 10,8 C 82 % 76 % 999,7 hPa 0,0 l/m 25,4 km/h (4 Bft) SW 225 0 min
30.10.2018 22:30 8,8 C 7,8 C 10,8 C 83 % 76 % 999,7 hPa 0,0 l/m 31,7 km/h (5 Bft) W-SW 240 0 min
30.10.2018 22:35 8,9 C 7,8 C 10,8 C 82 % 76 % 999,7 hPa 0,0 l/m 36,8 km/h (5 Bft) S-SW 210 0 min
30.10.2018 22:40 8,8 C 7,8 C 10,8 C 82 % 76 % 1000,8 hPa 0,0 l/m 30,2 km/h (5 Bft) SW 230 0 min
30.10.2018 22:45 8,7 C 7,8 C 10,8 C 83 % 76 % 1000,8 hPa 0,0 l/m 33,7 km/h (5 Bft) W-SW 240 0 min
30.10.2018 22:50 8,7 C 7,8 C 10,8 C 83 % 76 % 1000,8 hPa 0,0 l/m 26,3 km/h (4 Bft) SW 220 0 min
30.10.2018 22:55 8,7 C 7,8 C 10,8 C 83 % 76 % 1000,8 hPa 0,0 l/m 33,7 km/h (5 Bft) SW 220 0 min
30.10.2018 23:00 8,8 C 7,8 C 10,8 C 82 % 76 % 1000,8 hPa 0,0 l/m 33,7 km/h (5 Bft) SW 215 0 min
30.10.2018 23:05 8,8 C 7,8 C 10,8 C 82 % 76 % 1000,8 hPa 0,0 l/m 32,9 km/h (5 Bft) SW 215 0 min
30.10.2018 23:10 8,9 C 7,8 C 10,8 C 81 % 76 % 999,7 hPa 0,0 l/m 31,3 km/h (5 Bft) W 260 0 min
30.10.2018 23:15 8,9 C 7,8 C 10,8 C 81 % 76 % 999,7 hPa 0,0 l/m 30,5 km/h (5 Bft) SW 230 0 min
30.10.2018 23:20 8,9 C 7,8 C 10,8 C 80 % 76 % 999,7 hPa 0,0 l/m 30,2 km/h (5 Bft) SW 215 0 min
30.10.2018 23:25 8,9 C 7,8 C 10,8 C 79 % 76 % 1001,8 hPa 0,0 l/m 32,9 km/h (5 Bft) W-NW 290 0 min
30.10.2018 23:30 8,9 C 7,8 C 10,8 C 79 % 76 % 1001,8 hPa 0,0 l/m 32,1 km/h (5 Bft) W-SW 250 0 min
30.10.2018 23:35 8,9 C 7,8 C 10,8 C 79 % 76 % 1001,8 hPa 0,0 l/m 29,8 km/h (5 Bft) W 280 0 min
30.10.2018 23:40 8,9 C 7,8 C 10,8 C 79 % 76 % 1001,8 hPa 0,0 l/m 34,4 km/h (5 Bft) S-SW 210 0 min
30.10.2018 23:45 8,9 C 7,8 C 10,8 C 78 % 76 % 1001,8 hPa 0,0 l/m 40,2 km/h (6 Bft) W-SW 255 0 min
30.10.2018 23:50 8,8 C 7,8 C 10,8 C 79 % 76 % 1001,8 hPa 0,0 l/m 29,0 km/h (5 Bft) SW 225 0 min
30.10.2018 23:55 8,8 C 7,8 C 10,8 C 78 % 76 % 1002,8 hPa 0,0 l/m 30,5 km/h (5 Bft) S-SW 205 0 min
_ Min-Zeit 16:35 00:00 00:00 14:30 00:00 03:40 - 06:55 - - -
Minimum _ 3,5 C 7,8 C 10,8 C 67 % 76 % 981,7 hPa - 1,2 km/h (1 Bft) - - -
_ Max-Zeit 21:30 00:00 00:00 07:25 00:00 23:55 03:00 18:50 - - 00:00
Maximum _ 9,2 C 7,8 C 10,8 C 91 % 76 % 1002,8 hPa 0,9 l/m 46,8 km/h
W-SW (6 Bft)
- - 0 min
Durchschnitt _ 6,5 C 7,8 C 10,8 C 84 % 76 % 988,1 hPa #20,1 l/m 24,3 km/h (4 Bft) SO - #0 min.